NOAA 16 DEB, 42355

Orbit data source: Space-Track

NOAA 16 DEB, 42355 is space debris in SSO originally from a launch on Thu, 21 Sep 2000 UTC launched from the Air Force Western Test Range (AFWTR). Debris objects in space refer to the collection of defunct objects orbiting the Earth. Examples of debris include non-operational satellites, rocket bodies, and fragments generated from explosions, collisions, or faulty payload assembly.

Loading next visibility...
Identifier
42355, 2000-055QX
Orbit
SSO
Country
Flag of USUS
Related business
Manufacturer
Unknown
Mission
Spacecraft
Bus & Motor
Unknown
Mass
Unknown
Launch date (UTC)
2000-09-21 (26 years ago)
Launch vehicle
Unknown
Launch site
Air Force Western Test Range (AFWTR)
Object type
Payload
Rocket body
Debris
Shape & HBR
Unknown shape, 0.1 m
Radar Cross Section
Medium (>0.1 m² and <1 m²)

Expand to show TLE details & history
Last TLE update: 2 days ago

TLE from 2 days ago
0 NOAA 16 DEB
1 42355U 00055QX  26171.00612279  .00001839  00000-0  95167-3 0  9995
2 42355  98.6820 196.5352 0033490 228.1443 131.6872 14.15841605531000
Epoch: 2026-06-20T00:08Z
TLE epoch observation values (Epoch: 2026-06-20T00:08:49.009Z)
Latitude
0.00002°
Longitude
-73.89595°
Altitude
858.484 km
Speed
7.415 km/s
True Right ascension
13h 06m 08s
True Declination
0° 00' 00"
Sunlit
Object was in daylight at epoch
Visualization orbit readout
Latitude
Unknown
Longitude
Unknown
Altitude
Unknown
Speed
Unknown
Apparent Right ascension
Unknown
Apparent Declination
Unknown
Sunlit
N/A
Visualization observer readout
Local Sidereal Time
21:39:14
Azimuth
Unknown
Elevation
Unknown
Doppler factor
Unknown
Orbital elements
Apogee altitude
860.776 km
Perigee altitude
812.451 km
Semi-major axis
7,214.75 km
Eccentricity
0.00335
Inclination
98.682°
RAAN
196.5352°
Arg. of periapsis
228.1443°
True anomaly
131.973°
Mean anomaly
131.6872°
Eccentric anomaly
131.83018°
Mean motion
3.5417 °/min
Orbital period
101.65 mins
BSTAR
0.00095167
Loading maneuver chart data...
Computing Atmospheric mass density...
Loading historical data...
Loading historical data...
Loading historical data...
Loading historical data...
Loading historical data...
Loading historical data...
Loading historical data...

Documentation

Showing up to 5 results
|